Back to catalog

QIANFAN-155

AliveCommunicationsPO
NORAD 69114·PAYLOAD·🇨🇳 China

Launched May 17, 2026 from Wenchang Space Launch Site

Loading…

Next Passes (next 24 hours)

TLE

FreshSource: Space-Track

Epoch: Sep 14, 2026, 22:16 UTC

1 69114U 26108L   26257.92836956  .00000090  00000-0  12026-3 0  9991
2 69114  89.0190  13.0606 0002249 106.5993 253.5405 13.51022805 16565

Track QIANFAN-155 in real time with AllMySat

Download on the App Store